Weather History for Dalaman, Turkey

Change the Weather History Date:

Monday, October 14, 2013

  Actual Average Record
Temperature  
Mean Temperature 72 °F -  
Max Temperature 85 °F 71 °F 86 °F (2000)
Min Temperature 60 °F 52 °F 51 °F (1999)
Cooling Degree Days 8    
Growing Degree Days 22 (Base 50)    
Moisture  
Dew Point 46 °F    
Average Humidity 38    
Maximum Humidity 77    
Minimum Humidity 18    
Precipitation  
Precipitation 0.00 in - - ()
Sea Level Pressure  
Sea Level Pressure 29.96 in    
Wind  
Wind Speed 11 mph ()    
Max Wind Speed 17 mph    
Max Gust Speed -    
Visibility 6.1 miles    
Events      
Averages and records for this station are not official NWS values.
T = Trace of Precipitation, MM = Missing Value Source: Averaged Metar Reports

Daily Weather History Graph

Daily Weather History Graph

Search for Another Location

Airport:

Trip Planner

Search our weather history database for the weather conditions in past years. The results will help you decide how hot, cold, wet, or windy it might be!

Date:

Astronomy

Oct. 14, 2013 Rise Set
Actual Time 7:11 AM EEST 6:29 PM EEST
Civil Twilight 6:45 AM EEST 6:55 PM EEST
Nautical Twilight 6:15 AM EEST 7:25 PM EEST
Astronomical Twilight 5:45 AM EEST 7:55 PM EEST
Moon 3:40 PM EEST (10/14) 2:13 AM EEST (10/14)
Length of Visible Light 12h 10m
Length of Day
11h 18m
Waxing Gibbous, 76% of the Moon is Illuminated
Oct 14
Waxing Gibbous
Oct 19
Full
Oct 27
Last Quarter
Nov 3
New
Nov 10
First Quarter

Hourly Weather History & Observations

Time (EEST) Temp. Heat Index Dew Point Humidity Pressure Visibility Wind Dir Wind Speed Gust Speed Precip Events Conditions
12:20 AM 75.2 °F - 42.8 °F 31% 29.92 in - NNE 13.8 mph - N/A   Clear
12:50 AM 73.4 °F - 41.0 °F 31% 29.92 in - NNE 16.1 mph - N/A   Clear
1:20 AM 75.2 °F - 41.0 °F 29% 29.92 in - NNE 17.3 mph - N/A   Clear
1:50 AM 73.4 °F - 41.0 °F 31% 29.92 in - NNE 15.0 mph - N/A   Clear
2:20 AM 73.4 °F - 41.0 °F 31% 29.92 in - North 16.1 mph - N/A   Clear
2:50 AM 73.4 °F - 41.0 °F 31% 29.92 in - North 13.8 mph - N/A   Clear
3:00 AM 73 °F - 41 °F 20% 29.94 in 6 mi North 13.8 mph - -  
3:20 AM 71.6 °F - 39.2 °F 31% 29.92 in - North 11.5 mph - N/A   Clear
3:50 AM 73.4 °F - 41.0 °F 31% 29.92 in - North 13.8 mph - N/A   Clear
4:20 AM 73.4 °F - 39.2 °F 29% 29.92 in - North 13.8 mph - N/A   Clear
4:50 AM 69.8 °F - 41.0 °F 35% 29.92 in - NNE 13.8 mph - N/A   Clear
5:20 AM 69.8 °F - 39.2 °F 33% 29.92 in - North 13.8 mph - N/A   Clear
5:50 AM 71.6 °F - 39.2 °F 31% 29.92 in - North 13.8 mph - N/A   Clear
6:20 AM 69.8 °F - 39.2 °F 33% 29.92 in - North 11.5 mph - N/A   Clear
6:50 AM 66.2 °F - 41.0 °F 40% 29.92 in - NNE 10.4 mph - N/A   Clear
7:20 AM 68.0 °F - 41.0 °F 37% 29.92 in - North 11.5 mph - N/A   Clear
7:50 AM 69.8 °F - 41.0 °F 35% 29.95 in - North 12.7 mph - N/A   Clear
8:20 AM 73.4 °F - 41.0 °F 31% 29.95 in - NNE 10.4 mph - N/A   Clear
8:50 AM 75.2 °F - 41.0 °F 29% 29.95 in - NNE 12.7 mph - N/A   Clear
9:00 AM 75 °F - 40 °F 18% 29.96 in 6 mi NNE 12.7 mph - -  
9:20 AM 77.0 °F - 39.2 °F 26% 29.95 in - NNE 11.5 mph - N/A   Clear
9:50 AM 78.8 °F - 37.4 °F 23% 29.95 in - North 9.2 mph - N/A   Clear
10:20 AM 82.4 °F - 37.4 °F 20% 29.95 in - NNE 11.5 mph - N/A   Clear
10:50 AM 82.4 °F - 39.2 °F 21% 29.95 in - North 13.8 mph - N/A   Clear
11:20 AM 82.4 °F - 37.4 °F 20% 29.95 in - North 16.1 mph - N/A   Clear
11:50 AM 84.2 °F - 37.4 °F 19% 29.98 in - North 11.5 mph - N/A   Clear
12:20 PM 84.2 °F - 39.2 °F 20% 29.95 in - Variable 6.9 mph - N/A   Clear
12:50 PM 84.2 °F - 44.6 °F 25% 29.95 in - Variable 8.1 mph - N/A   Clear
1:20 PM 84.2 °F - 46.4 °F 27% 29.95 in 6.2 mi SSW 12.7 mph - N/A   Partly Cloudy
1:50 PM 82.4 °F - 48.2 °F 30% 29.95 in 6.2 mi South 15.0 mph - N/A   Partly Cloudy
2:20 PM 82.4 °F - 50.0 °F 32% 29.95 in 6.2 mi SSW 15.0 mph - N/A   Partly Cloudy
2:50 PM 80.6 °F - 51.8 °F 37% 29.95 in 6.2 mi SSW 13.8 mph - N/A   Partly Cloudy
3:00 PM 80 °F - 49 °F 23% 29.96 in 6 mi SSW 13.8 mph - -   Scattered Clouds
3:20 PM 80.6 °F - 50.0 °F 34% 29.95 in 6.2 mi SSW 12.7 mph - N/A   Partly Cloudy
3:50 PM 80.6 °F 80.3 °F 53.6 °F 39% 29.95 in 6.2 mi South 11.5 mph - N/A   Partly Cloudy
4:20 PM 78.8 °F - 50.0 °F 36% 29.95 in 6.2 mi SSW 12.7 mph - N/A   Partly Cloudy
4:50 PM 78.8 °F - 59.0 °F 51% 29.95 in 6.2 mi SSW 11.5 mph - N/A   Partly Cloudy
5:20 PM 77.0 °F - 57.2 °F 50% 29.95 in 6.2 mi South 9.2 mph - N/A   Partly Cloudy
5:50 PM 77.0 °F - 48.2 °F 36% 29.95 in - SSE 5.8 mph - N/A   Clear
6:20 PM 75.2 °F - 50.0 °F 41% 29.95 in - ESE 5.8 mph - N/A   Clear
6:50 PM 73.4 °F - 51.8 °F 47% 29.98 in - ESE 5.8 mph - N/A   Clear
7:20 PM 73.4 °F - 53.6 °F 50% 29.98 in - East 4.6 mph - N/A   Clear
7:50 PM 69.8 °F - 53.6 °F 56% 29.98 in - Variable 2.3 mph - N/A   Clear
8:20 PM 68.0 °F - 53.6 °F 60% 29.98 in - ESE 4.6 mph - N/A   Clear
8:50 PM 64.4 °F - 55.4 °F 73% 30.01 in - NE 5.8 mph - N/A   Clear
9:00 PM 64 °F - 54 °F 62% 30.01 in 6 mi NE 5.8 mph - -  
9:20 PM 66.2 °F - 53.6 °F 64% 30.01 in - NE 3.5 mph - N/A   Clear
9:50 PM 62.6 °F - 53.6 °F 72% 30.01 in - NNE 5.8 mph - N/A   Clear
10:20 PM 62.6 °F - 53.6 °F 72% 30.01 in - NE 3.5 mph - N/A   Clear
10:50 PM 60.8 °F - 51.8 °F 72% 30.04 in - NE 5.8 mph - N/A   Clear
11:20 PM 60.8 °F - 53.6 °F 77% 30.04 in - Variable 2.3 mph - N/A   Clear
11:50 PM 62.6 °F - 51.8 °F 68% 30.04 in - NE 4.6 mph - N/A   Clear